Location: Newark
(42.8481°N, 0.4872°E)
Time: 06:36:52
(UTC+00:00)

Explorer 7 - Pass Details

Date: 28 October 2020
Orbit: 484 x 678 km, 50.3° (Epoch: 30 November)

Event Time Altitude Azimuth Distance (km) Brightness Sun altitude
Rises 18:50:08 0° 300° (WNW) 2,619 11.3 -21.6°
Reaches altitude 10° 18:52:18 10° 303° (WNW) 1,756 10.2 -22.0°
Enters shadow 18:56:05 70° 3° (N) 578 6.8 -22.7°
